| time (UTC) | temp C | wind direction | speed KPH | gust KPH | rain 1hr cm | rain 24hr cm | rain mn cm | humidity % | barometer mb |
| 20260508171607 | 13 | 107 | 4.8 | 22.5 | 0.00 | 0.00 | 0.00 | 88 | 1013.5 |
| 20260508170100 | 13 | 113 | 9.7 | 24.1 | 0.00 | 0.00 | 0.00 | 87 | 1013.3 |
| 20260508164555 | 13 | 70 | 9.7 | 25.7 | 0.00 | 0.00 | 0.00 | 88 | 1013.5 |
| 20260508163059 | 13 | 157 | 12.9 | 25.7 | 0.00 | 0.00 | 0.00 | 88 | 1013.8 |
| 20260508161559 | 13 | 238 | 8.0 | 29.0 | 0.00 | 0.00 | 0.00 | 89 | 1013.8 |
| 20260508160058 | 13 | 153 | 6.4 | 25.7 | 0.00 | 0.00 | 0.00 | 88 | 1014.0 |
| 20260508154559 | 14 | 153 | 8.0 | 25.7 | 0.00 | 0.00 | 0.00 | 87 | 1013.9 |
| 20260508153058 | 14 | 82 | 6.4 | 22.5 | 0.00 | 0.00 | 0.00 | 87 | 1014.0 |
| 20260508151557 | 14 | 116 | 9.7 | 29.0 | 0.00 | 0.00 | 0.00 | 83 | 1014.1 |
| 20260508150054 | 15 | 94 | 6.4 | 24.1 | 0.00 | 0.00 | 0.00 | 82 | 1014.0 |
| 20260508144555 | 14 | 252 | 8.0 | 25.7 | 0.00 | 0.00 | 0.00 | 83 | 1014.1 |
| 20260508143103 | 15 | 154 | 9.7 | 25.7 | 0.00 | 0.00 | 0.00 | 80 | 1014.2 |
| 20260508141557 | 15 | 95 | 8.0 | 22.5 | 0.00 | 0.00 | 0.00 | 79 | 1014.0 |
| 20260508140059 | 15 | 157 | 6.4 | 27.4 | 0.00 | 0.00 | 0.00 | 81 | 1014.1 |
| 20260508134559 | 15 | 161 | 8.0 | 27.4 | 0.00 | 0.00 | 0.00 | 81 | 1014.2 |
| 20260508133100 | 15 | 336 | 6.4 | 29.0 | 0.00 | 0.00 | 0.00 | 81 | 1014.2 |
| 20260508131602 | 15 | 78 | 9.7 | 25.7 | 0.00 | 0.00 | 0.00 | 80 | 1013.9 |
| 20260508130111 | 15 | 135 | 11.3 | 30.6 | 0.00 | 0.00 | 0.00 | 77 | 1014.1 |
| 20260508124559 | 16 | 138 | 8.0 | 22.5 | 0.00 | 0.00 | 0.00 | 78 | 1014.0 |
| 20260508123103 | 16 | 96 | 9.7 | 30.6 | 0.00 | 0.00 | 0.00 | 78 | 1014.0 |
| 20260508121603 | 17 | 201 | 6.4 | 25.7 | 0.00 | 0.00 | 0.00 | 80 | 1014.2 |
| 20260508120059 | 16 | 355 | 6.4 | 24.1 | 0.00 | 0.00 | 0.00 | 80 | 1014.4 |
| 20260508114555 | 16 | 54 | 9.7 | 24.1 | 0.00 | 0.00 | 0.00 | 85 | 1014.4 |
| 20260508113102 | 16 | 115 | 6.4 | 20.9 | 0.00 | 0.00 | 0.00 | 84 | 1014.4 |
| 20260508111556 | 16 | 129 | 12.9 | 29.0 | 0.00 | 0.00 | 0.00 | 85 | 1014.5 |
| 20260508110101 | 16 | 142 | 6.4 | 27.4 | 0.00 | 0.00 | 0.00 | 87 | 1014.4 |
| 20260508104620 | 16 | 143 | 9.7 | 22.5 | 0.00 | 0.00 | 0.00 | 86 | 1014.5 |
| 20260508103054 | 15 | 101 | 8.0 | 29.0 | 0.00 | 0.00 | 0.00 | 87 | 1014.5 |
| 20260508101557 | 15 | 143 | 6.4 | 24.1 | 0.00 | 0.00 | 0.00 | 87 | 1014.5 |
| 20260508100057 | 15 | 242 | 6.4 | 19.3 | 0.00 | 0.00 | 0.00 | 90 | 1014.5 |
| 20260508094555 | 15 | 98 | 11.3 | 27.4 | 0.00 | 0.00 | 0.00 | 92 | 1014.6 |
| 20260508093055 | 15 | 80 | 9.7 | 27.4 | 0.00 | 0.00 | 0.00 | 91 | 1014.8 |
| 20260508091556 | 15 | 125 | 6.4 | 22.5 | 0.00 | 0.00 | 0.00 | 93 | 1014.8 |
| 20260508090109 | 14 | 254 | 4.8 | 14.5 | 0.00 | 0.00 | 0.00 | 92 | 1014.7 |
| 20260508084557 | 14 | 217 | 8.0 | 17.7 | 0.00 | 0.00 | 0.00 | 92 | 1014.7 |
| 20260508083109 | 14 | 99 | 4.8 | 19.3 | 0.00 | 0.00 | 0.00 | 99 | 1014.7 |
| 20260508081559 | 13 | 265 | 4.8 | 16.1 | 0.00 | 0.00 | 0.00 | 100 | 1014.7 |
| 20260508080106 | 13 | 94 | 4.8 | 24.1 | 0.00 | 0.00 | 0.00 | 100 | 1014.6 |
| 20260508074553 | 13 | 138 | 6.4 | 20.9 | 0.00 | 0.00 | 0.00 | 100 | 1014.7 |
| 20260508073057 | 12 | 98 | 3.2 | 12.9 | 0.00 | 0.00 | 0.00 | 100 | 1014.5 |
| 20260508071602 | 11 | 87 | 4.8 | 27.4 | 0.00 | 0.00 | 0.00 | 100 | 1014.5 |
| 20260508070139 | 10 | 121 | 6.4 | 24.1 | 0.00 | 0.00 | 0.00 | 100 | 1014.3 |
| 20260508064608 | 10 | 46 | 3.2 | 14.5 | 0.00 | 0.00 | 0.00 | 100 | 1014.2 |
| 20260508063053 | 8 | 13 | 3.2 | 9.7 | 0.00 | 0.00 | 0.00 | 100 | 1014.1 |
| 20260508061603 | 7 | 0 | 0.0 | 4.8 | 0.00 | 0.00 | 0.00 | 100 | 1013.8 |
| 20260508060058 | 6 | 169 | 0.0 | 1.6 | 0.00 | 0.00 | 0.00 | 100 | 1013.8 |
| 20260508054558 | 6 | 0 | 0.0 | 3.2 | 0.00 | 0.00 | 0.00 | 100 | 1013.7 |
| 20260508053104 | 5 | 0 | 0.0 | 3.2 | 0.00 | 0.00 | 0.00 | 100 | 1013.5 |
| 20260508051558 | 4 | 0 | 0.0 | 0.0 | 0.00 | 0.00 | 0.00 | 100 | 1013.5 |
| 20260508050103 | 4 | 0 | 0.0 | 0.0 | 0.00 | 0.00 | 0.00 | 100 | 1013.2 |
| 20260508044557 | 4 | 0 | 0.0 | 0.0 | 0.00 | 0.00 | 0.00 | 100 | 1013.1 |
| 20260508043106 | 4 | 0 | 0.0 | 0.0 | 0.00 | 0.00 | 0.00 | 100 | 1013.2 |
| 20260508041557 | 4 | 0 | 0.0 | 0.0 | 0.00 | 0.00 | 0.00 | 100 | 1012.9 |
| 20260508040055 | 4 | 0 | 0.0 | 0.0 | 0.00 | 0.00 | 0.00 | 100 | 1013.1 |
| 20260508034556 | 4 | 0 | 0.0 | 0.0 | 0.00 | 0.00 | 0.00 | 100 | 1013.1 |
| 20260508033057 | 4 | 0 | 0.0 | 0.0 | 0.00 | 0.00 | 0.00 | 100 | 1013.2 |
| 20260508031558 | 5 | 0 | 0.0 | 0.0 | 0.00 | 0.00 | 0.00 | 100 | 1013.1 |
| 20260508024558 | 5 | 0 | 0.0 | 0.0 | 0.00 | 0.00 | 0.00 | 100 | 1013.3 |
| 20260508023055 | 5 | 0 | 0.0 | 0.0 | 0.00 | 0.00 | 0.00 | 100 | 1013.4 |
| 20260508021554 | 5 | 0 | 0.0 | 0.0 | 0.00 | 0.00 | 0.00 | 100 | 1013.4 |
| 20260508020100 | 5 | 0 | 0.0 | 0.0 | 0.00 | 0.00 | 0.00 | 100 | 1013.5 |
| 20260508014559 | 5 | 0 | 0.0 | 0.0 | 0.00 | 0.00 | 0.00 | 100 | 1013.6 |
| 20260508013104 | 6 | 0 | 0.0 | 3.2 | 0.00 | 0.00 | 0.00 | 100 | 1013.6 |
| 20260508011557 | 6 | 0 | 0.0 | 3.2 | 0.00 | 0.00 | 0.00 | 100 | 1013.6 |
| 20260508010054 | 5 | 0 | 0.0 | 0.0 | 0.00 | 0.00 | 0.00 | 100 | 1013.5 |
| 20260508004600 | 5 | 0 | 0.0 | 3.2 | 0.00 | 0.00 | 0.00 | 100 | 1013.6 |
| 20260508003055 | 5 | 0 | 0.0 | 0.0 | 0.00 | 0.00 | 0.00 | 100 | 1013.8 |
| 20260508001556 | 5 | 0 | 0.0 | 0.0 | 0.00 | 0.00 | 0.00 | 100 | 1014.0 |
| 20260508000057 | 5 | 0 | 0.0 | 0.0 | 0.00 | 0.00 | 0.00 | 100 | 1014.2 |
| 20260507234559 | 6 | 0 | 0.0 | 0.0 | 0.00 | 0.00 | 0.00 | 100 | 1014.2 |
| 20260507233055 | 6 | 0 | 0.0 | 0.0 | 0.00 | 0.00 | 0.00 | 100 | 1014.2 |
| 20260507231555 | 6 | 0 | 0.0 | 0.0 | 0.00 | 0.00 | 0.00 | 100 | 1014.3 |
| 20260507230100 | 6 | 0 | 0.0 | 0.0 | 0.00 | 0.00 | 0.00 | 100 | 1014.3 |
| 20260507224557 | 6 | 0 | 0.0 | 0.0 | 0.00 | 0.00 | 0.00 | 100 | 1014.3 |
| 20260507223057 | 7 | 0 | 0.0 | 0.0 | 0.00 | 0.00 | 0.00 | 100 | 1014.2 |
| 20260507221600 | 7 | 0 | 0.0 | 0.0 | 0.00 | 0.00 | 0.00 | 100 | 1014.3 |
| 20260507220057 | 7 | 0 | 0.0 | 0.0 | 0.00 | 0.00 | 0.00 | 100 | 1014.3 |
| 20260507214554 | 7 | 0 | 0.0 | 0.0 | 0.00 | 0.18 | 0.00 | 100 | 1014.2 |
| 20260507213101 | 7 | 0 | 0.0 | 0.0 | 0.00 | 0.18 | 0.00 | 100 | 1014.2 |
| 20260507211559 | 7 | 0 | 0.0 | 0.0 | 0.00 | 0.18 | 0.00 | 100 | 1014.2 |
| 20260507210059 | 7 | 0 | 0.0 | 0.0 | 0.00 | 0.18 | 0.00 | 100 | 1014.3 |
| 20260507204600 | 8 | 0 | 0.0 | 0.0 | 0.00 | 0.36 | 0.00 | 100 | 1014.2 |
| 20260507203058 | 8 | 0 | 0.0 | 0.0 | 0.00 | 0.36 | 0.00 | 100 | 1014.2 |
| 20260507201604 | 8 | 0 | 0.0 | 3.2 | 0.00 | 0.36 | 0.00 | 100 | 1014.1 |
| 20260507200059 | 9 | 0 | 0.0 | 3.2 | 0.00 | 0.36 | 0.00 | 99 | 1014.0 |
| 20260507194608 | 10 | 0 | 0.0 | 3.2 | 0.00 | 0.36 | 0.00 | 98 | 1013.8 |
| 20260507193056 | 10 | 0 | 0.0 | 4.8 | 0.00 | 0.36 | 0.00 | 97 | 1013.7 |
| 20260507191615 | 10 | 78 | 0.0 | 3.2 | 0.00 | 0.36 | 0.00 | 98 | 1013.6 |
| 20260507190055 | 11 | 0 | 0.0 | 4.8 | 0.00 | 0.36 | 0.00 | 96 | 1013.5 |
| 20260507184602 | 11 | 131 | 0.0 | 3.2 | 0.00 | 0.38 | 0.00 | 94 | 1013.4 |
| 20260507183103 | 12 | 0 | 0.0 | 6.4 | 0.00 | 0.38 | 0.00 | 89 | 1013.4 |
| 20260507181555 | 12 | 123 | 3.2 | 6.4 | 0.00 | 0.38 | 0.00 | 84 | 1013.1 |
| 20260507180101 | 13 | 155 | 1.6 | 12.9 | 0.00 | 0.38 | 0.00 | 84 | 1013.0 |
| 20260507174556 | 13 | 280 | 1.6 | 9.7 | 0.00 | 0.43 | 0.00 | 83 | 1013.0 |
| 20260507173059 | 13 | 208 | 3.2 | 11.3 | 0.00 | 0.43 | 0.00 | 83 | 1012.8 |